Temp
65 64 64 63 62 62 61 61 60 60 60 60 59 58 58 57 56 56 55 55 55 54 54 54 54 54 54 53 53 53 52 52 52 52 52 52 51 51 51 50 50 50 49 49 49 48 48 48 48 47 47 47 47 46 46 46 45 45 44 44 43 43 42 42 42 42 42 42 41
64 63 63 62 62 61 60 60 60 59 59 59 58 58 57 57 56 56 55 55 55 55 55 55 55 54 54 53 53 53 52 52 52 52 52 52 51 51 51 50 50 50 50 49 49 48 48 47 47 47 47 46 46 45 45 46 45 44 44 43 43 43 42 42 42 41 41 41 41
65 63 62 62 61 61 60 59 59 58 58 58 57 57 57 57 57 56 56 56 56 56 55 55 55 55 54 53 53 53 53 52 52 52 52 52 51 51 51 50 49 50 50 49 49 48 48 47 48 48 47 46 45 45 45 45 45 44 44 43 43 43 43 43 42 41 41 41 40
64 63 61 61 60 60 60 60 59 58 58 58 57 57 58 57 57 57 56 56 56 56 56 56 56 55 55 54 53 53 53 53 53 52 52 52 51 51 50 49 49 49 49 49 48 48 48 47 47 47 47 46 45 45 45 45 45 44 44 43 43 43 42 43 42 42 41 41 40
64 63 62 61 61 60 60 60 59 59 58 58 58 58 58 58 57 57 57 57 56 56 56 56 56 56 56 55 53 53 53 53 54 53 52 51 51 50 50 49 49 49 48 48 48 48 47 47 47 47 46 45 46 45 45 44 44 44 43 43 43 43 42 42 42 41 41 41 40
63 62 61 61 61 60 60 59 59 58 58 58 58 58 58 58 57 57 56 56 56 55 55 56 56 56 55 54 53 53 52 52 53 52 51 51 51 50 49 49 49 49 48 47 47 47 47 47 47 46 46 46 45 45 44 44 43 43 43 42 43 42 42 41 41 41 40 40 39
62 61 61 61 60 60 59 58 59 58 58 58 58 57 57 57 56 56 56 56 55 55 55 56 56 55 54 53 53 52 52 52 51 51 51 51 50 50 50 49 49 48 47 47 47 47 47 46 46 46 47 47 46 45 44 43 43 42 42 42 42 42 41 40 40 40 39 38 38
60 60 60 60 60 59 58 58 58 58 57 58 58 57 56 56 55 55 55 55 55 55 56 56 55 54 54 53 53 53 52 51 51 51 51 51 50 50 50 49 48 48 48 48 47 47 46 46 46 46 45 45 45 44 43 43 42 42 41 40 41 40 40 40 39 39 39 38 38
59 59 59 59 59 58 58 58 58 57 57 57 57 56 56 55 55 55 55 55 55 56 56 56 55 54 54 53 53 53 53 52 52 52 51 51 51 50 49 49 49 48 48 48 48 47 47 46 46 45 45 45 44 44 43 42 42 41 40 40 40 39 39 39 39 38 38 38 37
58 58 58 58 57 58 58 57 57 57 56 56 56 56 56 56 56 56 56 56 56 56 56 55 55 54 53 53 53 53 53 53 53 52 52 51 51 50 50 49 49 49 49 48 48 47 47 46 45 44 44 44 43 43 42 42 42 41 40 40 40 39 39 38 38 38 38 38 37
57 57 57 57 57 57 57 56 57 56 56 56 55 55 56 56 56 56 56 57 56 55 55 55 54 54 54 53 53 53 53 53 53 52 52 51 51 51 50 49 49 49 49 49 48 48 47 46 45 44 43 43 43 42 42 42 41 41 40 40 40 39 39 38 38 37 37 36 36
57 57 57 57 56 56 56 56 56 56 56 56 56 56 56 56 56 56 56 56 55 55 54 54 54 54 54 54 54 54 54 53 53 52 52 51 51 50 50 49 49 49 49 48 48 48 47 46 45 44 43 43 42 42 42 42 41 40 40 39 39 39 38 38 37 37 36 35 35
57 56 56 56 55 55 55 55 56 56 56 56 56 57 56 56 56 56 56 55 55 55 55 54 54 54 54 54 54 54 53 53 52 52 51 51 50 50 49 48 48 48 48 48 47 47 46 45 44 44 43 42 42 42 42 41 41 40 39 39 39 38 38 37 37 36 36 36 36
56 56 56 55 54 54 54 54 55 55 55 55 56 56 56 56 56 56 56 54 54 54 54 54 54 55 54 54 53 53 53 52 52 51 51 50 50 49 49 48 47 47 47 47 47 46 45 44 44 43 43 42 42 42 42 41 40 40 39 38 38 37 37 37 37 36 36 36 36
56 55 55 54 54 54 54 53 54 54 54 54 55 55 55 55 56 56 55 54 53 53 53 53 54 53 53 53 52 52 52 51 51 50 50 49 49 49 48 47 45 45 46 46 46 45 44 43 43 43 43 42 42 41 41 41 40 39 39 38 38 37 37 37 36 36 36 36 36
55 54 54 53 53 53 53 52 53 52 52 53 53 53 54 54 54 54 53 53 52 52 52 52 52 52 51 52 51 51 51 50 50 49 49 49 49 48 48 46 43 43 43 44 44 44 43 42 42 42 42 41 41 41 40 40 39 39 38 38 38 38 37 37 37 36 36 36 36
54 53 53 52 52 52 52 52 52 52 51 52 52 52 52 53 53 53 53 53 52 52 52 51 51 51 51 51 51 51 50 50 50 49 49 49 48 48 47 45 43 42 42 42 42 42 41 41 41 41 41 40 40 39 39 39 39 38 38 38 38 38 38 38 37 36 36 36 37
52 52 51 51 51 51 51 51 51 51 51 51 51 51 51 52 52 53 53 53 52 52 51 51 51 50 50 49 49 50 50 50 49 49 49 49 48 47 47 45 43 42 41 40 40 40 40 40 40 41 40 40 39 38 38 38 38 38 38 38 38 37 37 37 36 36 36 37 37
51 51 50 50 50 50 50 51 51 51 51 51 51 51 51 52 52 52 52 52 52 52 51 50 50 50 49 49 49 49 50 49 49 49 48 48 48 47 46 45 43 41 40 39 39 40 40 40 41 41 40 39 38 38 38 38 38 38 38 38 37 36 36 35 35 36 37 37 38
50 50 50 50 51 51 51 52 51 51 52 52 52 51 51 51 52 52 52 51 51 51 50 50 49 49 48 48 48 48 48 48 48 48 47 47 47 46 45 44 42 40 38 38 38 38 39 41 41 40 40 39 39 38 38 38 38 37 37 37 37 36 35 35 36 37 37 38 38
49 49 50 50 51 51 51 51 51 51 51 51 51 51 51 51 51 51 51 51 50 50 50 49 49 48 48 48 47 47 47 47 47 47 47 46 46 45 44 43 41 39 37 37 37 37 38 40 40 40 39 39 38 37 37 37 37 37 37 38 38 37 37 37 38 38 38 39 39
49 49 49 49 50 50 51 51 51 51 51 50 50 50 50 50 50 50 49 49 49 49 48 48 48 47 47 47 47 46 46 46 46 46 46 45 45 45 44 43 40 38 36 36 36 36 37 38 38 38 37 37 36 36 37 38 38 38 38 38 38 39 39 39 40 40 40 40 39
49 49 49 49 49 50 51 51 51 50 50 49 49 49 49 49 49 49 48 48 49 48 48 47 47 46 46 46 46 45 45 44 44 44 44 44 44 44 43 42 39 37 36 36 36 35 35 36 35 35 35 35 35 35 36 38 39 38 37 37 37 38 39 40 40 40 40 40 40
49 49 49 49 49 50 50 50 49 49 49 48 49 49 49 48 48 48 48 48 48 48 48 48 47 46 45 45 44 44 44 43 43 43 43 43 43 43 42 41 38 37 36 36 36 37 36 36 34 34 34 34 34 35 37 37 37 36 36 36 36 37 38 39 40 40 40 40 41
49 49 49 49 49 49 49 49 48 48 48 48 48 48 48 48 48 48 48 48 48 47 47 47 46 45 45 44 44 43 43 43 42 42 42 42 42 42 41 41 39 37 36 36 41 43 43 41 37 36 35 36 37 38 38 36 35 36 36 36 37 37 38 39 39 40 40 40 40
48 48 48 47 48 48 48 48 48 48 48 48 48 48 48 48 48 47 47 47 47 46 46 46 45 45 45 44 43 43 42 42 41 41 41 41 40 40 39 40 40 38 36 39 44 46 46 46 44 41 39 38 39 39 37 35 35 36 37 37 38 38 38 39 39 39 40 41 39
47 47 47 47 47 47 47 48 48 48 48 47 47 47 47 47 47 47 46 46 46 45 45 45 45 46 46 44 42 41 41 40 40 40 39 39 40 39 38 38 39 38 37 41 45 47 48 48 47 45 43 40 39 37 36 35 36 36 36 36 37 38 38 39 38 39 39 40 40
47 46 46 46 46 47 47 48 48 47 47 47 47 47 47 46 46 46 46 45 45 44 44 43 43 44 44 42 41 40 40 39 39 39 38 38 38 38 38 38 38 38 40 43 46 48 48 49 48 48 46 44 41 38 37 36 37 37 37 37 37 38 38 38 38 39 39 39 40
46 46 46 46 46 46 47 47 47 47 47 47 46 46 46 45 45 45 44 44 44 43 42 42 42 42 40 40 40 39 39 39 39 38 38 38 38 37 37 38 38 39 42 46 47 48 49 49 49 49 48 47 44 41 39 38 39 39 39 39 39 38 38 38 39 39 39 39 39
46 46 46 46 46 46 46 46 46 46 46 46 45 45 44 44 44 44 44 43 43 42 41 41 41 40 39 39 39 39 38 38 38 38 38 38 37 37 37 38 38 40 43 48 48 49 49 49 50 50 50 49 47 43 40 39 39 40 40 41 40 39 39 39 39 39 39 39 39
46 46 46 45 45 45 45 45 45 45 45 45 44 44 43 43 43 43 42 42 42 42 42 41 40 39 39 39 39 38 38 38 38 38 38 37 38 38 38 38 38 40 44 49 49 50 50 50 50 50 50 50 49 45 42 40 40 40 41 41 40 40 40 40 39 39 39 39 39
45 45 45 45 44 45 45 45 45 45 44 44 43 43 43 42 42 42 42 41 42 42 41 40 40 39 39 39 39 38 38 38 37 37 37 37 38 38 38 39 40 41 44 49 50 50 50 51 51 51 51 51 50 47 43 41 40 40 40 40 40 40 40 42 41 40 40 40 40
44 44 44 44 44 44 44 44 44 44 44 44 43 43 43 42 41 41 41 41 41 41 40 40 40 39 39 39 38 38 38 38 38 38 39 38 38 38 39 40 41 44 46 49 50 50 51 51 51 51 51 51 50 48 45 42 43 42 41 40 40 40 40 40 41 41 41 41 41
43 44 44 44 44 44 44 44 44 44 43 43 43 43 42 41 41 41 41 41 41 41 40 40 40 40 39 39 39 39 39 39 38 38 38 38 38 39 39 40 43 46 49 50 50 51 51 51 51 51 51 52 50 47 44 43 44 43 42 41 40 40 39 39 40 41 41 42 42
43 43 43 43 43 43 44 43 43 43 43 43 43 42 41 41 40 41 41 42 42 41 40 40 40 40 40 40 39 39 39 39 38 38 38 38 38 39 40 41 43 46 49 50 51 51 51 51 52 52 52 51 49 46 44 42 42 42 41 41 40 40 39 39 40 41 41 42 42
43 43 43 43 43 43 43 43 43 43 43 43 42 41 41 40 40 40 41 43 42 41 40 40 40 40 39 39 39 39 39 38 38 39 39 39 39 40 40 42 43 46 48 50 51 51 51 52 52 52 52 50 47 44 43 42 42 41 40 40 40 40 39 40 40 41 41 42 42
43 43 43 43 43 43 43 43 43 42 42 42 41 40 40 40 40 40 41 42 41 40 39 39 39 39 38 38 38 38 38 38 39 39 40 41 41 41 41 43 43 45 47 50 50 51 51 52 52 52 51 48 44 42 42 42 41 40 39 39 39 39 39 41 41 40 40 40 41
43 44 44 43 43 43 43 42 42 42 41 41 40 40 40 40 40 40 41 42 40 39 38 38 38 38 37 37 37 38 38 38 39 40 40 41 42 43 43 43 43 44 46 49 50 51 51 52 52 52 50 46 42 41 41 41 40 40 40 39 39 39 39 40 40 39 39 38 42
43 44 44 43 43 43 42 42 42 41 41 40 40 40 40 40 40 40 41 42 39 38 38 37 37 37 37 38 38 38 38 38 40 41 42 42 44 45 45 44 43 44 46 48 50 51 51 52 52 52 51 47 43 41 41 41 39 39 39 39 39 38 38 39 39 39 39 38 43
43 43 43 43 43 42 42 42 41 41 40 40 40 40 40 40 40 41 41 40 39 38 37 37 37 37 38 40 39 38 38 39 40 42 44 44 45 46 47 45 44 44 45 48 49 50 51 51 51 52 51 47 42 41 41 40 39 38 38 38 38 38 38 37 38 38 39 38 41
43 43 43 43 42 42 42 42 41 41 40 40 40 40 41 41 41 40 39 39 38 38 38 37 37 38 39 41 39 38 39 40 41 43 44 45 45 46 46 45 44 43 44 46 48 50 50 51 51 52 51 47 43 41 40 39 38 37 36 37 37 37 37 37 37 37 38 37 38
MSLP
1012.43 1012.59 1012.71 1012.87 1013.03 1013.23 1013.43 1013.67 1013.83 1013.99 1014.19 1014.39 1014.63 1014.83 1015.07 1015.35 1015.59 1015.87 1016.11 1016.31 1016.51 1016.75 1016.99 1017.15 1017.31 1017.51 1017.71 1017.91 1018.03 1018.23 1018.39 1018.55 1018.75 1018.87 1019.03 1019.15 1019.31 1019.43 1019.55 1019.67 1019.79 1019.95 1020.11 1020.27 1020.43 1020.63 1020.75 1020.87 1021.03 1021.11 1021.19 1021.31 1021.39 1021.51 1021.59 1021.63 1021.71 1021.87 1021.99 1022.07 1022.19 1022.31 1022.43 1022.55 1022.67 1022.75 1022.75 1022.87 1022.87
1012.31 1012.43 1012.59 1012.75 1012.95 1013.15 1013.39 1013.59 1013.75 1013.95 1014.11 1014.27 1014.43 1014.63 1014.87 1015.15 1015.43 1015.71 1015.99 1016.15 1016.35 1016.55 1016.75 1017.03 1017.19 1017.39 1017.59 1017.75 1017.91 1018.11 1018.31 1018.47 1018.63 1018.79 1018.95 1019.07 1019.23 1019.31 1019.43 1019.59 1019.71 1019.83 1019.99 1020.15 1020.39 1020.59 1020.71 1020.83 1020.95 1021.03 1021.15 1021.23 1021.31 1021.43 1021.51 1021.51 1021.63 1021.75 1021.91 1022.03 1022.15 1022.19 1022.31 1022.43 1022.55 1022.59 1022.67 1022.75 1022.79
1012.19 1012.35 1012.55 1012.71 1012.91 1013.11 1013.31 1013.51 1013.71 1013.87 1014.03 1014.19 1014.35 1014.59 1014.83 1015.03 1015.31 1015.55 1015.79 1016.03 1016.19 1016.43 1016.63 1016.87 1017.03 1017.23 1017.43 1017.59 1017.79 1017.99 1018.15 1018.31 1018.51 1018.71 1018.87 1019.03 1019.15 1019.27 1019.39 1019.51 1019.67 1019.79 1019.95 1020.11 1020.31 1020.43 1020.59 1020.75 1020.83 1020.91 1021.03 1021.15 1021.27 1021.39 1021.47 1021.51 1021.59 1021.71 1021.87 1021.99 1022.07 1022.15 1022.23 1022.35 1022.43 1022.51 1022.59 1022.63 1022.71
1012.07 1012.31 1012.47 1012.67 1012.83 1013.03 1013.15 1013.31 1013.59 1013.75 1013.95 1014.11 1014.31 1014.51 1014.75 1014.99 1015.19 1015.43 1015.63 1015.87 1016.11 1016.31 1016.47 1016.63 1016.87 1017.07 1017.31 1017.47 1017.71 1017.87 1018.07 1018.23 1018.39 1018.59 1018.75 1018.91 1019.07 1019.19 1019.31 1019.43 1019.59 1019.71 1019.87 1020.03 1020.23 1020.39 1020.51 1020.63 1020.75 1020.83 1020.91 1021.03 1021.15 1021.31 1021.39 1021.43 1021.51 1021.63 1021.71 1021.87 1021.95 1022.07 1022.15 1022.27 1022.31 1022.43 1022.47 1022.59 1022.63
1012.03 1012.15 1012.39 1012.55 1012.71 1012.87 1013.03 1013.23 1013.47 1013.71 1013.87 1014.03 1014.27 1014.51 1014.71 1014.91 1015.15 1015.35 1015.59 1015.79 1015.99 1016.15 1016.31 1016.43 1016.67 1016.87 1017.11 1017.31 1017.59 1017.79 1017.99 1018.15 1018.31 1018.47 1018.67 1018.87 1018.99 1019.11 1019.23 1019.35 1019.47 1019.63 1019.79 1019.99 1020.15 1020.31 1020.43 1020.55 1020.63 1020.75 1020.83 1020.91 1021.07 1021.15 1021.23 1021.31 1021.43 1021.59 1021.67 1021.75 1021.87 1021.99 1022.07 1022.19 1022.27 1022.31 1022.43 1022.51 1022.59
1011.95 1012.15 1012.31 1012.47 1012.63 1012.83 1013.03 1013.23 1013.43 1013.59 1013.79 1014.03 1014.23 1014.43 1014.59 1014.83 1015.03 1015.27 1015.47 1015.67 1015.79 1015.99 1016.15 1016.31 1016.51 1016.75 1016.99 1017.23 1017.43 1017.67 1017.87 1018.07 1018.19 1018.35 1018.59 1018.75 1018.87 1019.03 1019.15 1019.31 1019.43 1019.55 1019.71 1019.91 1020.07 1020.19 1020.31 1020.43 1020.59 1020.63 1020.75 1020.83 1020.91 1021.03 1021.15 1021.19 1021.31 1021.47 1021.59 1021.71 1021.75 1021.87 1021.95 1022.11 1022.15 1022.27 1022.35 1022.47 1022.55
1011.87 1012.07 1012.31 1012.43 1012.63 1012.83 1013.03 1013.19 1013.39 1013.59 1013.75 1013.99 1014.15 1014.31 1014.51 1014.71 1014.91 1015.11 1015.31 1015.47 1015.71 1015.87 1016.07 1016.23 1016.39 1016.59 1016.83 1017.11 1017.31 1017.55 1017.75 1017.95 1018.11 1018.27 1018.43 1018.59 1018.79 1018.95 1019.07 1019.23 1019.35 1019.51 1019.67 1019.83 1019.95 1020.07 1020.19 1020.31 1020.43 1020.55 1020.63 1020.71 1020.83 1020.91 1021.03 1021.11 1021.23 1021.43 1021.59 1021.71 1021.71 1021.79 1021.87 1022.03 1022.11 1022.19 1022.31 1022.43 1022.51
1011.83 1012.03 1012.23 1012.39 1012.59 1012.75 1012.99 1013.15 1013.39 1013.59 1013.79 1013.99 1014.11 1014.23 1014.39 1014.59 1014.75 1014.99 1015.15 1015.39 1015.59 1015.75 1015.91 1016.07 1016.27 1016.43 1016.63 1016.91 1017.15 1017.35 1017.59 1017.79 1018.03 1018.15 1018.31 1018.51 1018.67 1018.83 1018.99 1019.15 1019.31 1019.43 1019.59 1019.71 1019.87 1020.03 1020.15 1020.23 1020.31 1020.39 1020.55 1020.63 1020.75 1020.83 1020.91 1021.03 1021.15 1021.35 1021.51 1021.67 1021.71 1021.75 1021.83 1021.91 1022.03 1022.11 1022.23 1022.35 1022.43
1011.87 1012.03 1012.19 1012.35 1012.55 1012.75 1012.95 1013.11 1013.31 1013.51 1013.71 1013.91 1014.03 1014.15 1014.31 1014.47 1014.63 1014.83 1015.03 1015.23 1015.39 1015.55 1015.71 1015.87 1016.07 1016.31 1016.51 1016.75 1016.95 1017.15 1017.39 1017.59 1017.79 1017.99 1018.15 1018.31 1018.51 1018.71 1018.87 1019.03 1019.19 1019.35 1019.47 1019.59 1019.71 1019.87 1020.03 1020.15 1020.19 1020.27 1020.39 1020.47 1020.59 1020.75 1020.87 1020.95 1021.11 1021.27 1021.43 1021.55 1021.63 1021.71 1021.79 1021.87 1021.91 1022.03 1022.15 1022.27 1022.35
1011.95 1012.07 1012.19 1012.39 1012.59 1012.75 1012.91 1013.11 1013.31 1013.47 1013.67 1013.87 1013.95 1014.11 1014.23 1014.35 1014.51 1014.67 1014.83 1014.99 1015.15 1015.39 1015.59 1015.75 1015.95 1016.15 1016.43 1016.59 1016.79 1017.03 1017.19 1017.39 1017.59 1017.79 1017.99 1018.15 1018.31 1018.51 1018.67 1018.87 1019.03 1019.19 1019.39 1019.51 1019.63 1019.75 1019.91 1020.03 1020.15 1020.19 1020.27 1020.39 1020.51 1020.63 1020.75 1020.87 1021.03 1021.19 1021.35 1021.43 1021.55 1021.67 1021.71 1021.83 1021.87 1021.99 1022.07 1022.15 1022.23
1011.99 1012.11 1012.23 1012.43 1012.59 1012.75 1012.91 1013.15 1013.31 1013.43 1013.59 1013.75 1013.87 1014.03 1014.11 1014.23 1014.39 1014.51 1014.63 1014.79 1015.03 1015.27 1015.43 1015.59 1015.79 1016.03 1016.27 1016.47 1016.67 1016.87 1017.03 1017.23 1017.43 1017.59 1017.79 1017.99 1018.15 1018.31 1018.43 1018.63 1018.83 1019.03 1019.19 1019.39 1019.51 1019.67 1019.75 1019.87 1020.03 1020.11 1020.19 1020.31 1020.43 1020.55 1020.67 1020.83 1020.99 1021.15 1021.27 1021.39 1021.43 1021.59 1021.67 1021.75 1021.83 1021.91 1021.99 1022.03 1022.15
1012.03 1012.15 1012.27 1012.43 1012.59 1012.75 1012.87 1013.07 1013.27 1013.43 1013.55 1013.67 1013.79 1013.91 1014.03 1014.15 1014.31 1014.43 1014.55 1014.75 1014.95 1015.15 1015.27 1015.43 1015.59 1015.83 1016.03 1016.31 1016.47 1016.67 1016.87 1017.03 1017.27 1017.43 1017.63 1017.79 1017.95 1018.15 1018.31 1018.51 1018.71 1018.87 1019.03 1019.19 1019.35 1019.51 1019.63 1019.75 1019.87 1020.03 1020.15 1020.23 1020.31 1020.43 1020.59 1020.75 1020.87 1021.03 1021.15 1021.31 1021.39 1021.51 1021.59 1021.67 1021.75 1021.83 1021.87 1021.95 1022.03
1012.03 1012.15 1012.31 1012.43 1012.59 1012.75 1012.87 1013.03 1013.19 1013.31 1013.47 1013.63 1013.71 1013.83 1013.99 1014.11 1014.19 1014.35 1014.55 1014.71 1014.87 1015.03 1015.19 1015.39 1015.55 1015.71 1015.91 1016.15 1016.35 1016.55 1016.75 1016.95 1017.15 1017.31 1017.51 1017.71 1017.87 1018.07 1018.31 1018.47 1018.63 1018.79 1018.95 1019.07 1019.23 1019.35 1019.47 1019.63 1019.71 1019.87 1020.03 1020.15 1020.27 1020.35 1020.47 1020.63 1020.75 1020.91 1021.07 1021.19 1021.31 1021.43 1021.55 1021.59 1021.67 1021.71 1021.79 1021.87 1021.91
1012.03 1012.15 1012.31 1012.43 1012.59 1012.75 1012.87 1013.03 1013.15 1013.31 1013.43 1013.59 1013.71 1013.83 1013.95 1014.11 1014.23 1014.35 1014.47 1014.67 1014.83 1015.03 1015.19 1015.39 1015.55 1015.71 1015.87 1016.07 1016.31 1016.51 1016.71 1016.91 1017.15 1017.31 1017.51 1017.71 1017.87 1018.03 1018.23 1018.43 1018.59 1018.75 1018.87 1019.03 1019.15 1019.23 1019.35 1019.47 1019.59 1019.71 1019.87 1020.03 1020.15 1020.27 1020.35 1020.51 1020.63 1020.79 1020.95 1021.07 1021.23 1021.31 1021.43 1021.47 1021.59 1021.63 1021.71 1021.75 1021.79
1012.03 1012.15 1012.31 1012.47 1012.63 1012.75 1012.91 1013.07 1013.15 1013.31 1013.47 1013.59 1013.71 1013.83 1013.95 1014.11 1014.23 1014.31 1014.47 1014.71 1014.87 1015.03 1015.19 1015.43 1015.59 1015.75 1015.91 1016.11 1016.31 1016.55 1016.75 1016.95 1017.15 1017.31 1017.51 1017.71 1017.87 1018.03 1018.15 1018.35 1018.55 1018.67 1018.75 1018.91 1019.03 1019.15 1019.23 1019.35 1019.43 1019.59 1019.71 1019.87 1020.03 1020.15 1020.31 1020.43 1020.55 1020.67 1020.79 1020.91 1021.03 1021.15 1021.27 1021.31 1021.43 1021.51 1021.59 1021.67 1021.71
1012.07 1012.23 1012.39 1012.55 1012.67 1012.83 1012.99 1013.15 1013.27 1013.39 1013.55 1013.67 1013.75 1013.87 1013.99 1014.11 1014.23 1014.39 1014.59 1014.75 1014.91 1015.11 1015.27 1015.43 1015.63 1015.83 1016.03 1016.15 1016.31 1016.55 1016.75 1016.99 1017.15 1017.31 1017.47 1017.67 1017.79 1017.95 1018.11 1018.27 1018.43 1018.59 1018.67 1018.83 1018.95 1019.07 1019.15 1019.27 1019.35 1019.47 1019.63 1019.79 1019.95 1020.07 1020.19 1020.31 1020.43 1020.59 1020.67 1020.75 1020.87 1020.99 1021.07 1021.19 1021.31 1021.35 1021.43 1021.51 1021.59
1012.15 1012.31 1012.47 1012.59 1012.79 1012.95 1013.07 1013.23 1013.35 1013.51 1013.63 1013.71 1013.83 1013.95 1014.03 1014.15 1014.31 1014.43 1014.59 1014.75 1014.95 1015.15 1015.31 1015.47 1015.59 1015.79 1016.03 1016.15 1016.31 1016.47 1016.67 1016.87 1017.03 1017.19 1017.35 1017.51 1017.63 1017.83 1017.99 1018.15 1018.31 1018.43 1018.59 1018.71 1018.87 1019.03 1019.15 1019.23 1019.31 1019.43 1019.55 1019.71 1019.87 1019.99 1020.11 1020.23 1020.31 1020.43 1020.59 1020.63 1020.75 1020.83 1020.95 1021.03 1021.11 1021.19 1021.31 1021.35 1021.43
1012.23 1012.39 1012.55 1012.75 1012.87 1013.07 1013.23 1013.35 1013.47 1013.59 1013.71 1013.83 1013.91 1013.99 1014.07 1014.19 1014.35 1014.47 1014.63 1014.75 1014.91 1015.11 1015.31 1015.43 1015.59 1015.71 1015.87 1016.03 1016.23 1016.35 1016.51 1016.71 1016.87 1017.03 1017.19 1017.35 1017.51 1017.67 1017.87 1018.03 1018.19 1018.35 1018.47 1018.63 1018.79 1018.91 1019.07 1019.19 1019.31 1019.39 1019.51 1019.63 1019.75 1019.87 1020.03 1020.15 1020.23 1020.35 1020.43 1020.51 1020.59 1020.71 1020.79 1020.87 1020.95 1021.03 1021.15 1021.19 1021.23
1012.31 1012.47 1012.63 1012.79 1012.95 1013.11 1013.27 1013.35 1013.47 1013.59 1013.71 1013.79 1013.87 1013.95 1014.07 1014.15 1014.31 1014.43 1014.59 1014.75 1014.83 1014.99 1015.15 1015.35 1015.55 1015.67 1015.79 1015.91 1016.11 1016.27 1016.39 1016.55 1016.75 1016.87 1017.07 1017.23 1017.43 1017.59 1017.75 1017.95 1018.15 1018.31 1018.43 1018.59 1018.75 1018.87 1018.99 1019.11 1019.19 1019.31 1019.43 1019.59 1019.71 1019.87 1019.95 1020.03 1020.15 1020.23 1020.35 1020.43 1020.51 1020.59 1020.71 1020.75 1020.83 1020.87 1020.95 1021.03 1021.03
1012.39 1012.51 1012.63 1012.75 1012.87 1013.03 1013.15 1013.23 1013.35 1013.43 1013.55 1013.63 1013.75 1013.87 1013.99 1014.07 1014.19 1014.35 1014.51 1014.67 1014.75 1014.87 1015.07 1015.27 1015.43 1015.63 1015.79 1015.95 1016.07 1016.19 1016.31 1016.47 1016.63 1016.83 1016.99 1017.15 1017.35 1017.55 1017.71 1017.91 1018.11 1018.31 1018.43 1018.59 1018.71 1018.83 1018.95 1019.03 1019.15 1019.27 1019.39 1019.55 1019.67 1019.79 1019.87 1019.99 1020.07 1020.15 1020.27 1020.31 1020.43 1020.47 1020.55 1020.59 1020.67 1020.75 1020.79 1020.87 1020.87
1012.43 1012.55 1012.67 1012.75 1012.87 1012.95 1013.07 1013.15 1013.27 1013.39 1013.51 1013.59 1013.71 1013.87 1013.95 1014.11 1014.19 1014.31 1014.43 1014.55 1014.71 1014.87 1015.03 1015.19 1015.39 1015.59 1015.75 1015.95 1016.07 1016.19 1016.31 1016.47 1016.63 1016.79 1016.95 1017.11 1017.31 1017.47 1017.67 1017.83 1018.07 1018.31 1018.47 1018.59 1018.67 1018.79 1018.87 1019.03 1019.11 1019.23 1019.35 1019.47 1019.59 1019.71 1019.83 1019.91 1020.03 1020.11 1020.15 1020.23 1020.31 1020.35 1020.39 1020.43 1020.51 1020.59 1020.63 1020.67 1020.71
1012.47 1012.59 1012.75 1012.83 1012.95 1013.03 1013.15 1013.23 1013.35 1013.47 1013.59 1013.67 1013.79 1013.87 1014.03 1014.15 1014.23 1014.31 1014.43 1014.55 1014.75 1014.87 1015.03 1015.19 1015.35 1015.51 1015.67 1015.87 1015.99 1016.15 1016.31 1016.47 1016.59 1016.75 1016.91 1017.11 1017.27 1017.43 1017.59 1017.87 1018.07 1018.31 1018.47 1018.59 1018.67 1018.75 1018.87 1018.95 1019.03 1019.15 1019.31 1019.43 1019.55 1019.63 1019.71 1019.83 1019.91 1019.99 1020.03 1020.11 1020.15 1020.19 1020.27 1020.31 1020.31 1020.39 1020.43 1020.43 1020.47
1012.51 1012.63 1012.75 1012.87 1012.99 1013.07 1013.19 1013.31 1013.43 1013.51 1013.63 1013.71 1013.87 1013.95 1014.07 1014.19 1014.27 1014.39 1014.51 1014.63 1014.75 1014.91 1015.07 1015.23 1015.35 1015.51 1015.67 1015.83 1015.95 1016.15 1016.31 1016.51 1016.67 1016.79 1016.95 1017.15 1017.31 1017.43 1017.67 1017.87 1018.07 1018.27 1018.43 1018.55 1018.63 1018.75 1018.87 1018.95 1019.03 1019.15 1019.23 1019.35 1019.47 1019.59 1019.63 1019.71 1019.75 1019.83 1019.95 1020.03 1020.03 1020.07 1020.11 1020.11 1020.15 1020.19 1020.23 1020.23 1020.23
1012.51 1012.63 1012.75 1012.87 1012.99 1013.11 1013.19 1013.31 1013.43 1013.59 1013.71 1013.75 1013.87 1014.03 1014.15 1014.23 1014.35 1014.47 1014.59 1014.71 1014.83 1014.95 1015.11 1015.27 1015.43 1015.59 1015.71 1015.87 1016.03 1016.15 1016.35 1016.55 1016.71 1016.87 1017.03 1017.15 1017.31 1017.47 1017.67 1017.87 1018.07 1018.23 1018.35 1018.51 1018.59 1018.67 1018.75 1018.87 1018.99 1019.07 1019.15 1019.27 1019.35 1019.43 1019.51 1019.55 1019.63 1019.71 1019.83 1019.87 1019.91 1019.91 1019.95 1019.95 1019.99 1019.99 1020.03 1020.03 1020.03
1012.51 1012.67 1012.79 1012.91 1013.03 1013.15 1013.31 1013.39 1013.47 1013.63 1013.75 1013.87 1013.95 1014.11 1014.23 1014.31 1014.43 1014.55 1014.71 1014.79 1014.87 1015.03 1015.15 1015.31 1015.47 1015.63 1015.79 1015.95 1016.07 1016.23 1016.35 1016.51 1016.67 1016.87 1017.03 1017.15 1017.31 1017.43 1017.63 1017.87 1018.03 1018.19 1018.31 1018.43 1018.43 1018.43 1018.55 1018.67 1018.83 1018.95 1019.07 1019.15 1019.23 1019.31 1019.35 1019.43 1019.51 1019.59 1019.67 1019.71 1019.75 1019.79 1019.79 1019.79 1019.79 1019.79 1019.75 1019.71 1019.75
1012.59 1012.75 1012.87 1013.03 1013.11 1013.23 1013.35 1013.47 1013.59 1013.67 1013.75 1013.87 1014.03 1014.15 1014.27 1014.39 1014.47 1014.63 1014.75 1014.87 1014.99 1015.07 1015.19 1015.35 1015.47 1015.63 1015.79 1015.95 1016.11 1016.27 1016.39 1016.55 1016.67 1016.79 1016.99 1017.15 1017.31 1017.47 1017.67 1017.83 1017.99 1018.15 1018.31 1018.31 1018.31 1018.31 1018.35 1018.43 1018.59 1018.75 1018.87 1019.03 1019.07 1019.15 1019.19 1019.31 1019.35 1019.43 1019.47 1019.55 1019.59 1019.63 1019.67 1019.63 1019.59 1019.55 1019.51 1019.47 1019.47
1012.71 1012.83 1012.95 1013.07 1013.19 1013.31 1013.39 1013.47 1013.59 1013.71 1013.83 1013.91 1014.03 1014.15 1014.31 1014.43 1014.55 1014.71 1014.83 1014.95 1015.03 1015.15 1015.27 1015.39 1015.51 1015.63 1015.79 1015.95 1016.11 1016.31 1016.43 1016.59 1016.71 1016.83 1016.95 1017.11 1017.31 1017.43 1017.59 1017.71 1017.87 1018.03 1018.15 1018.15 1018.11 1018.11 1018.15 1018.27 1018.31 1018.47 1018.67 1018.83 1018.87 1018.99 1019.03 1019.11 1019.19 1019.31 1019.35 1019.39 1019.43 1019.43 1019.43 1019.43 1019.31 1019.31 1019.23 1019.19 1019.15
1012.79 1012.87 1013.03 1013.15 1013.27 1013.31 1013.43 1013.51 1013.59 1013.71 1013.83 1013.95 1014.07 1014.19 1014.31 1014.43 1014.59 1014.75 1014.87 1014.99 1015.11 1015.19 1015.31 1015.43 1015.51 1015.63 1015.79 1015.99 1016.15 1016.27 1016.43 1016.55 1016.67 1016.83 1016.95 1017.11 1017.27 1017.39 1017.51 1017.63 1017.71 1017.83 1017.95 1017.95 1017.91 1017.95 1018.03 1018.03 1018.15 1018.23 1018.35 1018.55 1018.67 1018.75 1018.87 1018.91 1018.99 1019.03 1019.15 1019.19 1019.23 1019.23 1019.19 1019.15 1019.11 1019.03 1019.03 1018.91 1018.87
1012.87 1012.95 1013.03 1013.19 1013.31 1013.35 1013.43 1013.55 1013.67 1013.75 1013.87 1013.99 1014.11 1014.23 1014.35 1014.47 1014.63 1014.75 1014.87 1015.03 1015.15 1015.27 1015.39 1015.51 1015.59 1015.71 1015.87 1016.03 1016.15 1016.27 1016.39 1016.55 1016.67 1016.79 1016.91 1017.07 1017.23 1017.31 1017.43 1017.51 1017.59 1017.67 1017.71 1017.75 1017.79 1017.83 1017.87 1017.87 1017.95 1018.03 1018.11 1018.23 1018.39 1018.47 1018.59 1018.63 1018.71 1018.75 1018.79 1018.87 1018.87 1018.87 1018.87 1018.87 1018.83 1018.75 1018.71 1018.63 1018.59
1012.87 1012.95 1013.11 1013.23 1013.31 1013.43 1013.51 1013.59 1013.67 1013.75 1013.87 1013.99 1014.11 1014.31 1014.43 1014.55 1014.71 1014.83 1014.91 1015.07 1015.19 1015.31 1015.43 1015.51 1015.63 1015.79 1015.91 1016.03 1016.15 1016.27 1016.43 1016.51 1016.63 1016.75 1016.87 1017.03 1017.19 1017.31 1017.35 1017.43 1017.43 1017.51 1017.55 1017.59 1017.59 1017.67 1017.71 1017.75 1017.79 1017.87 1017.87 1017.99 1018.07 1018.15 1018.27 1018.31 1018.35 1018.43 1018.43 1018.47 1018.47 1018.47 1018.51 1018.51 1018.47 1018.43 1018.39 1018.31 1018.27
1012.91 1013.03 1013.15 1013.27 1013.39 1013.47 1013.59 1013.63 1013.71 1013.79 1013.91 1014.03 1014.15 1014.31 1014.47 1014.63 1014.75 1014.87 1014.99 1015.07 1015.19 1015.27 1015.35 1015.51 1015.71 1015.87 1015.99 1016.03 1016.15 1016.31 1016.39 1016.51 1016.59 1016.71 1016.83 1016.99 1017.03 1017.15 1017.27 1017.31 1017.35 1017.39 1017.43 1017.43 1017.47 1017.55 1017.59 1017.63 1017.67 1017.71 1017.71 1017.75 1017.79 1017.87 1017.95 1017.99 1018.03 1018.07 1018.11 1018.11 1018.11 1018.15 1018.15 1018.15 1018.11 1018.11 1018.07 1018.03 1017.99
1012.99 1013.11 1013.23 1013.35 1013.43 1013.55 1013.59 1013.67 1013.71 1013.83 1013.95 1014.07 1014.23 1014.39 1014.55 1014.67 1014.79 1014.87 1014.99 1015.07 1015.19 1015.31 1015.43 1015.59 1015.75 1015.87 1015.99 1016.11 1016.19 1016.31 1016.43 1016.47 1016.59 1016.71 1016.79 1016.87 1017.03 1017.11 1017.15 1017.23 1017.27 1017.31 1017.31 1017.35 1017.35 1017.43 1017.43 1017.47 1017.51 1017.55 1017.55 1017.55 1017.59 1017.59 1017.67 1017.71 1017.79 1017.83 1017.83 1017.83 1017.83 1017.87 1017.87 1017.79 1017.75 1017.71 1017.67 1017.67 1017.67
1013.03 1013.15 1013.27 1013.43 1013.51 1013.59 1013.63 1013.71 1013.79 1013.87 1014.03 1014.15 1014.31 1014.43 1014.59 1014.71 1014.79 1014.87 1014.99 1015.07 1015.19 1015.35 1015.51 1015.63 1015.75 1015.91 1016.03 1016.15 1016.23 1016.35 1016.43 1016.51 1016.59 1016.63 1016.75 1016.87 1016.95 1017.03 1017.11 1017.15 1017.15 1017.19 1017.19 1017.23 1017.27 1017.31 1017.31 1017.35 1017.35 1017.35 1017.35 1017.35 1017.35 1017.39 1017.47 1017.51 1017.55 1017.55 1017.59 1017.59 1017.55 1017.55 1017.55 1017.55 1017.47 1017.43 1017.39 1017.39 1017.39
1013.15 1013.23 1013.35 1013.43 1013.55 1013.63 1013.71 1013.71 1013.83 1013.91 1014.07 1014.19 1014.35 1014.43 1014.59 1014.75 1014.87 1014.95 1015.03 1015.07 1015.15 1015.31 1015.47 1015.63 1015.75 1015.87 1015.95 1016.11 1016.19 1016.31 1016.43 1016.51 1016.59 1016.67 1016.75 1016.87 1016.95 1017.03 1017.03 1017.03 1017.03 1017.03 1017.07 1017.11 1017.15 1017.15 1017.15 1017.19 1017.19 1017.15 1017.15 1017.15 1017.15 1017.23 1017.27 1017.31 1017.27 1017.31 1017.31 1017.31 1017.31 1017.27 1017.31 1017.27 1017.23 1017.19 1017.15 1017.15 1017.11
1013.27 1013.35 1013.43 1013.51 1013.59 1013.63 1013.71 1013.79 1013.87 1013.99 1014.11 1014.27 1014.39 1014.47 1014.59 1014.75 1014.87 1014.99 1015.03 1015.07 1015.19 1015.35 1015.51 1015.59 1015.71 1015.83 1015.95 1016.07 1016.15 1016.31 1016.43 1016.51 1016.63 1016.71 1016.75 1016.87 1016.91 1016.95 1016.99 1016.95 1016.95 1016.95 1016.95 1016.99 1016.99 1016.99 1016.99 1016.99 1016.95 1016.95 1016.91 1016.91 1016.95 1017.03 1017.03 1017.03 1017.07 1017.07 1017.07 1017.07 1017.07 1017.03 1017.03 1017.03 1017.03 1016.95 1016.91 1016.87 1016.87
1013.35 1013.43 1013.51 1013.59 1013.63 1013.71 1013.79 1013.87 1013.95 1014.07 1014.19 1014.35 1014.43 1014.59 1014.71 1014.79 1014.87 1014.95 1015.03 1015.07 1015.23 1015.39 1015.55 1015.67 1015.75 1015.87 1016.03 1016.11 1016.23 1016.31 1016.39 1016.47 1016.59 1016.67 1016.75 1016.75 1016.87 1016.87 1016.87 1016.87 1016.87 1016.83 1016.83 1016.87 1016.83 1016.83 1016.79 1016.79 1016.75 1016.75 1016.75 1016.75 1016.79 1016.83 1016.87 1016.87 1016.87 1016.91 1016.91 1016.91 1016.87 1016.87 1016.83 1016.79 1016.75 1016.75 1016.71 1016.67 1016.63
1013.43 1013.51 1013.59 1013.67 1013.71 1013.79 1013.87 1013.95 1014.03 1014.15 1014.31 1014.43 1014.51 1014.63 1014.75 1014.83 1014.91 1014.99 1015.03 1015.15 1015.31 1015.47 1015.59 1015.71 1015.79 1015.91 1016.03 1016.11 1016.19 1016.31 1016.35 1016.43 1016.55 1016.63 1016.71 1016.75 1016.75 1016.79 1016.79 1016.79 1016.75 1016.75 1016.75 1016.75 1016.71 1016.67 1016.63 1016.59 1016.59 1016.59 1016.59 1016.59 1016.59 1016.63 1016.71 1016.75 1016.75 1016.75 1016.75 1016.75 1016.67 1016.63 1016.63 1016.59 1016.59 1016.55 1016.51 1016.51 1016.43
1013.51 1013.55 1013.63 1013.71 1013.79 1013.87 1013.87 1014.03 1014.11 1014.23 1014.35 1014.43 1014.55 1014.63 1014.75 1014.83 1014.95 1015.03 1015.11 1015.15 1015.35 1015.55 1015.71 1015.79 1015.87 1015.99 1016.03 1016.15 1016.23 1016.31 1016.35 1016.43 1016.47 1016.59 1016.67 1016.67 1016.67 1016.67 1016.71 1016.71 1016.67 1016.63 1016.59 1016.59 1016.59 1016.55 1016.51 1016.43 1016.43 1016.39 1016.43 1016.47 1016.47 1016.51 1016.55 1016.59 1016.55 1016.55 1016.55 1016.51 1016.47 1016.43 1016.43 1016.43 1016.39 1016.39 1016.39 1016.35 1016.23
1013.59 1013.59 1013.67 1013.75 1013.87 1013.91 1013.99 1014.07 1014.19 1014.31 1014.43 1014.51 1014.59 1014.67 1014.75 1014.87 1014.99 1015.07 1015.11 1015.15 1015.35 1015.59 1015.75 1015.87 1016.03 1016.07 1016.11 1016.15 1016.31 1016.39 1016.43 1016.43 1016.47 1016.51 1016.59 1016.59 1016.55 1016.51 1016.55 1016.59 1016.55 1016.51 1016.47 1016.43 1016.43 1016.43 1016.35 1016.31 1016.27 1016.23 1016.23 1016.31 1016.31 1016.35 1016.39 1016.39 1016.39 1016.35 1016.35 1016.35 1016.31 1016.31 1016.31 1016.27 1016.27 1016.23 1016.19 1016.15 1016.03
1013.67 1013.67 1013.71 1013.83 1013.87 1013.99 1014.03 1014.15 1014.31 1014.39 1014.43 1014.55 1014.67 1014.75 1014.87 1014.91 1015.03 1015.11 1015.15 1015.27 1015.43 1015.59 1015.75 1015.91 1016.03 1016.11 1016.15 1016.19 1016.31 1016.43 1016.47 1016.47 1016.43 1016.43 1016.43 1016.43 1016.43 1016.39 1016.43 1016.43 1016.43 1016.39 1016.35 1016.31 1016.27 1016.23 1016.19 1016.15 1016.15 1016.11 1016.11 1016.15 1016.15 1016.19 1016.23 1016.23 1016.23 1016.23 1016.19 1016.19 1016.15 1016.15 1016.15 1016.15 1016.15 1016.15 1016.11 1016.03 1015.95
1013.71 1013.79 1013.87 1013.87 1013.99 1014.03 1014.15 1014.27 1014.35 1014.43 1014.51 1014.59 1014.71 1014.83 1014.91 1014.99 1015.07 1015.19 1015.31 1015.43 1015.55 1015.71 1015.87 1015.99 1016.11 1016.15 1016.23 1016.27 1016.31 1016.43 1016.43 1016.43 1016.39 1016.31 1016.31 1016.31 1016.31 1016.31 1016.31 1016.31 1016.31 1016.31 1016.23 1016.15 1016.15 1016.11 1016.07 1016.03 1016.03 1015.95 1015.95 1016.03 1016.03 1016.03 1016.07 1016.11 1016.15 1016.11 1016.07 1016.03 1016.03 1016.03 1016.03 1016.03 1015.99 1016.03 1015.99 1015.95 1015.87
Wind_Speed
9 8 7 6 6 6 6 6 6 6 6 7 7 7 7 7 7 7 6 6 6 6 6 6 6 6 7 9 9 9 8 8 8 8 8 8 8 8 8 7 7 7 7 7 6 6 5 5 4 4 3 3 3 2 2 2 3 3 3 2 2 2 3 3 2 2 2 2 2
9 8 7 7 7 6 5 5 6 6 6 6 6 6 6 6 7 7 7 7 6 6 6 6 6 7 8 10 10 9 9 9 9 9 8 8 8 8 8 7 7 8 8 8 7 6 5 5 5 4 3 3 3 2 2 2 3 3 3 3 2 2 2 2 2 2 2 2 2
9 8 7 7 7 7 6 6 6 6 6 5 5 6 6 6 6 6 7 7 6 6 6 6 7 8 9 10 10 9 9 9 9 9 8 8 8 8 8 7 8 8 8 7 7 6 5 5 5 4 4 3 3 3 3 2 3 3 3 3 2 2 2 2 2 2 2 1 1
9 8 7 8 9 9 8 6 7 7 7 6 5 6 6 6 6 6 6 6 7 6 6 7 8 8 9 10 10 9 9 9 10 9 9 8 8 8 8 8 8 8 8 7 7 7 6 6 5 4 4 5 4 4 3 3 3 3 3 3 2 2 2 2 2 2 2 1 1
9 8 7 8 9 9 8 7 8 8 7 6 6 6 6 5 5 5 6 6 7 7 7 8 8 8 9 10 11 10 10 10 10 10 8 8 8 8 8 8 8 8 8 7 7 7 7 6 5 4 4 5 4 4 4 4 4 4 3 2 2 2 2 2 2 2 2 1 1
8 7 7 7 8 8 7 6 8 8 7 6 7 7 7 6 6 6 6 7 7 8 8 9 9 9 9 10 11 11 10 10 10 9 9 9 8 8 9 9 8 8 7 7 7 7 7 6 4 4 4 4 4 3 4 4 4 4 3 2 2 2 2 2 2 2 2 2 1
7 8 8 8 8 8 7 7 8 7 7 7 8 9 8 7 7 8 8 8 7 8 8 9 9 9 10 11 11 10 10 9 9 9 9 9 9 9 9 9 8 8 8 7 7 7 7 6 4 4 4 4 3 3 3 4 4 4 3 3 2 2 2 2 2 2 2 2 2
6 7 8 8 8 8 8 8 8 7 7 6 8 9 9 9 9 9 9 8 8 8 8 8 9 10 11 11 11 11 11 10 10 10 10 9 10 10 9 9 9 8 8 8 8 7 6 5 4 4 4 4 3 3 3 4 4 4 4 3 2 2 2 2 2 2 2 3 3
5 6 7 8 8 8 8 9 9 8 8 7 8 9 9 9 10 10 9 8 8 8 8 8 10 11 12 12 12 11 11 11 11 10 10 10 10 10 10 9 9 9 8 8 8 8 7 5 4 4 4 4 4 4 4 4 5 4 4 3 2 2 2 2 3 3 3 3 3
6 6 7 7 7 8 8 8 8 9 9 8 9 9 9 10 10 10 9 8 8 9 9 9 10 11 12 12 12 12 11 11 11 11 11 11 11 11 11 10 10 10 9 8 8 7 7 5 5 5 4 4 4 4 5 5 5 5 4 3 3 2 2 2 3 3 3 3 4
6 6 6 6 7 8 8 8 8 8 9 9 9 9 9 10 10 10 9 8 9 9 10 10 11 12 12 12 12 11 11 10 10 11 11 11 12 12 11 10 10 10 10 9 8 7 6 5 5 6 5 5 5 5 5 5 5 5 4 3 3 3 3 2 2 3 3 3 4
6 6 6 6 7 8 8 8 8 8 8 9 9 9 9 9 10 9 9 8 9 10 10 10 11 12 12 11 11 11 11 11 11 11 11 11 11 11 11 10 10 10 10 9 8 7 6 6 6 7 7 6 5 5 5 6 6 5 5 4 4 4 4 3 3 3 3 3 3
6 6 6 7 7 8 8 8 7 7 8 9 9 8 8 8 9 9 9 9 10 9 9 9 10 11 11 10 10 10 10 10 10 10 10 10 10 10 10 10 10 10 9 9 8 7 7 7 7 8 8 7 5 5 6 6 6 6 5 5 5 5 5 5 4 3 3 3 3
7 7 7 7 7 7 7 7 6 6 7 8 8 7 7 7 8 8 8 8 9 8 8 8 9 9 9 9 9 9 9 9 9 9 9 9 9 9 10 9 9 9 8 8 8 7 7 7 8 8 8 7 6 6 6 6 6 6 6 6 6 6 5 5 5 4 3 3 4
7 7 7 7 7 7 6 6 5 5 6 7 6 6 6 6 7 7 7 7 7 7 7 7 7 7 7 8 8 9 9 8 9 9 9 9 9 9 9 9 9 8 8 8 7 7 7 8 8 8 8 7 7 6 6 6 6 6 6 6 6 6 6 6 5 5 5 5 5
7 6 6 6 6 6 6 5 4 4 5 5 5 5 5 5 5 6 6 7 6 6 6 7 7 6 6 7 8 8 9 9 9 9 9 9 10 10 10 9 9 9 8 8 8 7 6 7 7 7 7 7 6 6 5 5 5 5 6 6 6 6 6 6 6 5 5 6 6
6 6 6 6 6 6 5 4 4 4 4 4 4 5 5 5 5 5 6 7 6 6 7 7 7 7 7 8 8 8 9 9 9 9 10 10 10 10 10 10 9 9 8 9 8 8 7 6 6 6 6 6 5 5 5 5 4 5 5 5 6 6 6 6 6 6 6 6 7
6 6 6 6 6 6 5 5 4 4 4 5 5 4 5 5 6 6 7 7 8 8 9 9 8 8 8 9 8 8 8 9 9 9 9 10 10 10 10 10 9 8 8 8 8 8 7 7 6 5 5 5 4 4 4 4 4 4 4 4 5 5 5 6 6 6 6 7 8
6 6 6 6 7 6 6 6 5 5 5 5 5 5 6 6 7 7 8 8 9 10 10 10 9 8 9 9 9 8 8 8 9 9 9 9 9 9 9 9 8 8 7 8 8 8 7 7 6 6 5 4 4 3 3 3 4 4 4 4 4 5 5 5 6 6 6 7 8
6 6 7 7 7 7 7 7 7 6 6 6 6 7 7 8 8 9 9 9 9 10 10 10 9 9 8 9 9 8 8 7 8 9 9 8 8 9 9 9 8 7 7 7 7 7 7 7 6 6 5 5 4 4 4 4 4 4 4 4 4 5 5 5 6 6 7 7 8
6 6 6 6 6 7 7 6 6 6 6 6 7 7 7 8 8 9 9 9 9 10 10 10 10 10 9 9 9 8 7 6 7 8 8 8 8 8 8 8 8 7 7 6 7 7 7 7 6 6 5 5 5 5 5 5 5 5 5 5 5 5 6 6 6 7 7 8 9
4 4 5 5 5 6 6 5 5 5 5 6 6 6 7 7 7 8 8 8 8 9 9 9 9 9 9 9 9 8 7 6 6 6 7 7 7 7 8 8 8 7 7 7 6 6 6 6 6 5 5 5 5 5 6 6 6 6 6 6 6 6 7 7 7 8 8 9 9
4 4 4 4 5 5 6 5 5 5 5 6 6 6 6 7 7 7 7 7 7 8 7 7 7 8 8 8 8 7 7 6 5 6 6 6 7 7 7 7 7 7 7 7 6 6 6 5 5 5 5 5 5 5 6 6 6 6 6 7 7 7 7 7 8 8 9 9 10
4 4 4 4 5 5 5 5 5 5 6 6 6 6 6 6 6 6 6 7 7 7 7 7 6 7 7 7 7 7 7 7 6 6 6 7 7 7 7 7 7 7 7 6 7 7 7 6 5 4 4 4 4 5 5 6 6 6 6 6 6 6 7 7 8 8 9 10 10
4 5 5 5 5 5 5 5 5 5 5 5 6 6 6 6 6 6 6 7 7 7 7 7 6 6 6 6 7 7 7 7 7 7 7 7 7 7 7 6 6 5 5 6 9 11 11 9 7 5 5 5 5 5 5 5 6 6 6 6 7 7 7 8 9 9 10 10 10
4 5 5 5 5 4 4 5 5 5 5 5 5 5 5 5 6 6 6 6 6 6 6 7 7 6 6 6 7 7 7 6 7 7 7 7 7 7 6 6 5 5 5 8 12 14 14 13 11 9 7 5 5 5 5 5 6 7 7 7 7 7 8 9 10 10 10 10 11
4 4 4 4 4 4 4 4 4 4 5 5 6 6 6 6 5 6 6 6 6 6 6 6 6 7 7 6 7 7 6 6 6 7 7 7 8 7 7 6 5 5 6 10 13 15 15 15 15 13 10 7 6 6 6 6 6 6 7 7 7 8 9 10 10 11 11 11 11
4 4 4 4 4 4 4 4 4 5 5 6 6 6 6 6 6 6 6 6 6 5 5 5 5 5 6 5 6 7 7 6 6 6 7 7 7 7 7 6 5 6 8 12 14 15 15 16 16 15 13 10 7 6 6 6 6 6 6 7 8 9 9 10 10 10 10 11 11
4 4 4 5 4 4 4 4 4 5 5 6 6 6 5 6 6 6 6 6 6 5 5 4 4 4 5 5 6 6 6 6 6 6 6 6 6 7 6 6 6 7 10 14 14 15 15 16 16 16 16 14 9 6 6 6 6 6 6 7 7 8 9 10 10 10 10 11 11
4 4 4 5 4 4 4 4 4 5 5 5 5 5 5 6 6 6 6 6 6 5 4 4 4 5 5 6 6 6 6 5 6 6 6 7 7 6 6 6 6 7 10 14 14 15 15 15 16 16 17 17 12 8 6 6 6 6 6 7 8 9 10 10 11 11 11 11 11
4 4 4 4 4 4 3 3 4 4 4 5 5 5 5 5 5 5 5 6 5 4 4 5 5 5 5 5 5 5 5 5 5 5 6 7 7 6 6 6 6 7 9 13 14 14 15 15 16 16 17 18 13 9 6 6 7 7 7 7 8 9 10 10 11 11 11 11 11
3 4 4 4 4 3 3 3 4 4 4 5 5 5 5 5 5 4 4 5 5 5 4 5 5 5 5 5 5 5 5 5 6 6 6 6 6 5 5 5 5 6 8 12 13 14 14 15 15 16 17 17 14 10 7 6 7 7 8 9 10 11 11 10 10 11 12 12 11
2 3 3 3 3 3 3 3 3 4 4 5 5 5 5 4 4 3 4 4 5 5 5 5 5 6 6 6 5 5 5 6 6 6 6 6 5 5 4 5 4 6 8 11 13 13 14 15 15 16 17 17 13 10 7 7 7 7 7 9 10 11 11 12 12 12 12 12 12
1 2 2 3 3 2 2 3 3 3 4 4 4 5 4 4 4 3 3 3 4 4 4 5 5 5 5 5 5 5 5 5 5 5 5 5 5 5 4 4 4 6 9 11 13 14 14 15 16 16 17 16 12 9 7 8 7 7 8 9 9 10 10 11 12 12 12 12 12
1 1 1 2 2 2 2 2 3 3 3 4 4 4 4 4 4 4 3 3 3 3 3 4 4 4 4 4 4 5 5 5 5 5 5 5 5 5 5 5 5 7 9 11 13 14 14 15 16 16 16 14 10 8 7 7 8 8 9 9 9 9 10 10 10 10 11 11 11
1 1 1 1 1 2 2 2 2 3 3 3 3 3 3 3 3 3 3 3 3 3 3 3 4 4 3 3 3 4 4 5 5 5 5 6 5 5 5 5 5 7 10 12 13 14 15 15 16 16 15 12 8 6 6 6 7 7 8 9 9 9 9 9 9 9 9 9 10
1 0 0 1 1 1 2 2 2 2 3 3 3 3 3 3 2 2 2 3 3 3 3 3 4 4 3 3 3 3 3 4 4 4 5 5 5 5 5 5 6 7 9 11 13 14 15 16 16 16 14 10 7 6 6 6 6 6 7 8 8 9 8 8 8 8 8 8 9
1 0 0 1 1 1 2 2 2 2 2 2 2 3 3 3 2 2 2 3 3 3 3 3 3 3 3 3 3 3 2 3 3 4 4 5 5 5 5 6 6 6 8 10 12 14 15 15 16 16 13 8 6 5 6 5 5 6 7 7 7 7 7 7 6 6 7 8 10
1 1 1 1 1 1 2 2 2 2 3 3 2 3 3 2 2 2 2 3 3 3 3 3 2 2 3 3 3 2 2 2 3 3 4 4 5 5 6 6 6 6 7 9 11 13 14 15 16 16 14 9 6 5 5 5 5 6 7 7 6 6 6 6 5 5 6 7 11
1 1 1 1 1 2 2 3 3 3 3 3 3 3 2 2 2 2 3 3 3 3 3 3 3 3 3 3 3 3 2 3 3 4 5 5 5 6 6 6 6 6 7 9 11 12 13 14 15 16 14 10 6 5 5 5 5 6 6 6 6 6 6 5 5 5 5 6 9
2 2 2 2 2 2 3 3 3 3 3 3 3 2 2 3 3 3 3 3 3 3 3 3 3 3 3 3 3 3 3 3 4 4 5 5 5 6 6 6 6 6 7 8 10 12 13 14 15 16 15 10 7 5 5 5 5 6 6 6 6 5 5 5 5 5 5 6 6
Wind_Direction
184 185 185 180 173 171 171 171 168 167 167 169 168 165 162 160 162 163 165 166 168 168 168 169 170 168 166 166 166 165 163 163 163 163 162 160 161 161 161 159 155 153 153 155 157 160 161 160 158 158 159 156 156 158 158 149 139 137 138 142 149 152 153 155 168 179 185 188 184
186 184 180 172 167 165 164 164 163 164 165 168 164 160 158 159 160 161 164 167 167 166 165 165 167 166 166 167 167 166 164 163 165 165 165 164 164 163 162 160 157 155 155 156 159 163 167 165 160 159 158 154 153 158 163 157 142 141 146 157 160 156 154 160 175 182 184 188 183
186 180 172 166 165 164 163 162 162 162 162 162 158 156 155 157 158 160 163 167 164 162 162 163 166 165 165 165 166 167 166 165 166 167 167 168 166 164 163 160 158 157 157 158 162 167 170 168 162 160 160 159 160 166 170 169 152 150 157 170 166 157 155 166 175 173 169 170 171
183 175 166 165 165 165 165 163 161 160 159 157 153 152 153 155 156 158 160 160 160 162 164 164 165 165 165 165 167 168 168 167 167 168 169 169 168 165 163 160 159 159 160 161 164 168 171 168 164 162 162 162 165 170 175 173 161 159 162 170 160 153 154 164 166 162 156 160 166
179 171 165 166 166 165 163 159 158 158 157 154 152 153 155 156 155 155 157 161 165 167 166 163 163 164 165 165 166 167 168 169 169 169 169 170 168 167 164 161 162 163 163 164 167 169 171 168 165 163 164 164 169 173 176 169 160 158 159 159 153 149 151 156 157 152 147 153 162
174 165 160 163 162 160 157 155 155 155 155 154 154 157 158 159 158 159 161 165 166 164 161 161 161 161 162 163 165 167 168 170 171 170 169 169 168 166 164 163 164 164 165 166 168 170 170 168 165 164 165 165 169 172 171 161 156 153 153 155 156 152 149 156 158 149 146 154 171
166 159 158 160 159 156 153 153 152 152 152 154 159 161 162 161 160 161 163 162 160 160 161 163 162 161 162 164 166 169 170 172 171 171 169 168 167 166 166 166 165 165 166 168 170 171 171 166 164 165 166 165 168 170 167 154 149 148 152 160 164 156 152 159 157 150 150 164 180
157 154 155 158 155 153 151 151 151 151 154 160 165 166 164 161 160 160 160 158 160 163 165 165 164 163 163 165 168 170 171 172 172 172 170 167 167 167 167 166 166 167 169 170 172 173 172 167 165 164 165 164 167 169 166 154 149 150 154 164 168 161 155 158 157 156 161 175 189
148 147 149 150 149 149 150 151 151 154 159 166 169 167 164 161 160 160 161 162 164 165 165 165 164 163 164 166 169 171 172 173 173 172 171 168 168 168 169 168 169 170 171 172 173 174 172 168 166 165 165 163 165 168 166 158 155 155 159 164 166 165 160 155 158 162 170 179 195
142 141 142 143 144 146 148 150 153 156 161 167 170 168 165 163 164 164 165 166 164 164 166 166 164 164 165 169 171 172 173 174 173 172 171 171 171 171 171 171 172 172 172 174 174 173 171 168 167 166 165 162 163 165 165 160 159 162 165 166 165 168 170 169 164 169 177 187 199
140 139 141 144 146 147 149 152 156 160 164 170 172 170 167 167 168 169 167 162 163 166 169 167 165 166 168 171 173 174 174 174 174 174 174 174 174 173 173 172 172 172 173 175 174 173 172 170 168 167 166 164 163 163 163 162 163 166 169 171 168 172 180 191 180 178 181 188 198
141 141 143 146 148 150 153 157 161 165 168 172 174 173 171 171 171 169 165 161 165 168 169 167 167 168 170 172 173 174 174 174 174 174 174 175 174 172 172 172 172 172 173 174 174 173 173 172 170 168 167 166 164 164 165 165 165 169 173 176 175 180 189 200 197 192 187 186 198
146 146 148 150 152 154 158 162 166 168 171 175 177 175 173 172 171 168 165 164 167 167 167 167 169 170 171 172 172 172 173 173 173 173 173 173 171 170 170 171 172 172 174 175 175 174 173 172 169 168 168 168 168 167 167 167 169 172 177 181 184 188 195 201 202 200 196 197 209
153 153 155 156 157 159 162 166 168 170 171 175 177 176 173 171 171 169 167 165 166 165 163 165 169 170 171 170 169 169 169 170 170 170 170 170 170 169 170 172 173 173 173 174 175 173 172 171 170 168 168 169 170 170 169 169 172 176 180 184 189 194 199 201 201 199 201 209 220
160 159 158 157 159 161 165 168 169 168 169 173 176 173 170 169 171 169 165 162 161 158 157 160 164 165 164 162 162 163 164 165 166 167 168 169 170 170 171 172 174 174 172 172 173 173 171 169 168 167 167 168 170 171 171 172 175 178 182 186 191 195 199 201 200 199 203 210 221
163 161 157 155 158 161 164 167 166 165 165 169 170 168 165 165 165 161 156 154 151 149 149 154 156 156 156 157 158 160 161 164 167 168 170 171 172 173 173 173 175 174 172 170 171 171 170 167 166 165 165 166 168 170 172 173 175 179 183 187 191 195 198 200 199 201 205 210 220
161 157 153 152 155 158 160 162 160 159 160 163 163 160 157 156 154 152 151 150 147 147 150 155 156 156 157 161 162 163 164 167 170 172 174 175 174 174 174 174 176 174 170 167 167 167 166 164 163 161 161 162 165 168 171 174 176 179 183 187 190 195 198 200 201 203 206 213 221
151 148 147 147 151 153 155 155 154 155 156 159 158 155 152 150 151 151 152 152 151 154 157 161 162 162 163 165 166 167 168 171 173 175 176 176 175 174 173 174 174 171 167 164 164 164 162 161 160 158 157 157 161 167 171 175 179 184 187 191 194 198 201 203 203 205 209 216 225
142 143 145 149 153 155 157 159 159 160 161 162 160 158 156 155 156 156 157 159 161 161 163 164 165 165 166 166 168 169 171 172 173 174 175 174 172 171 171 170 170 167 163 159 159 159 159 159 159 158 158 159 163 168 175 180 187 193 197 200 204 205 207 208 208 210 214 220 228
143 147 153 157 160 163 165 168 167 167 167 166 164 163 162 162 161 161 163 166 166 166 164 164 165 166 167 167 168 170 172 172 172 172 171 169 168 168 167 166 165 162 158 155 155 155 157 159 161 162 163 165 171 177 184 190 196 201 206 210 213 215 215 216 217 219 223 227 232
149 154 159 162 164 167 171 173 171 169 168 167 167 165 164 164 164 166 167 167 166 165 165 165 165 166 167 168 168 170 171 169 168 167 166 163 163 162 161 160 160 158 156 154 154 155 157 161 163 165 168 172 177 182 188 194 201 207 212 217 220 221 223 223 225 227 231 233 236
154 155 159 162 165 168 172 174 171 169 168 168 167 166 165 166 168 168 166 163 162 164 165 166 166 167 168 168 168 167 166 164 163 161 159 157 157 156 154 153 155 156 156 158 158 159 161 164 166 167 170 174 181 186 190 195 202 208 214 218 222 225 227 228 230 232 234 235 237
154 153 156 160 164 168 172 175 173 170 169 168 167 167 167 168 168 164 160 158 162 164 166 167 166 166 166 165 162 159 157 155 155 153 151 150 149 148 148 148 153 158 163 166 164 164 164 168 171 172 173 176 183 189 193 197 203 208 213 218 223 227 230 232 234 235 236 237 237
153 152 154 159 163 168 172 175 174 172 170 168 167 166 166 167 164 160 158 160 164 166 166 166 164 161 158 156 154 152 152 152 150 149 148 147 145 145 145 147 156 164 169 172 173 173 173 174 178 180 183 184 188 195 200 204 206 208 212 218 225 231 236 239 240 240 240 241 241
147 147 149 154 161 167 172 175 175 172 169 166 165 164 165 166 163 161 162 164 166 165 163 160 155 152 151 149 150 150 151 151 151 150 149 148 147 147 147 151 160 168 174 178 183 185 185 186 185 186 189 194 200 207 211 213 212 213 215 220 228 235 242 246 246 245 244 244 243
137 139 144 150 156 164 171 176 175 171 166 162 162 165 167 168 165 164 164 166 166 164 160 155 153 152 151 150 150 151 152 153 152 152 152 152 152 151 153 158 165 170 178 186 191 193 194 196 195 194 194 197 204 210 215 218 217 218 220 224 230 236 242 247 248 247 246 245 243
132 136 141 146 154 165 173 177 172 166 161 159 163 166 168 167 166 166 166 168 166 163 158 155 154 154 153 151 152 154 155 156 155 154 154 154 156 158 161 165 168 172 183 192 196 199 201 203 202 200 198 198 202 206 209 214 215 217 220 224 230 235 239 244 247 248 248 248 245
135 139 142 145 156 168 174 171 167 162 160 160 164 166 166 165 165 166 168 168 165 162 159 157 155 153 152 152 156 157 157 156 156 156 155 155 159 163 167 172 172 177 185 194 200 204 207 209 209 207 204 201 202 203 205 208 210 213 216 221 227 232 236 240 244 246 248 249 248
139 140 142 148 160 168 171 168 166 163 161 160 162 163 164 165 166 167 168 167 165 164 162 159 153 149 149 155 157 156 155 155 156 156 156 158 163 169 174 177 176 182 188 196 203 208 211 214 215 215 213 209 206 203 202 205 208 212 216 219 223 227 231 235 239 242 244 246 247
135 138 143 150 160 166 170 169 167 163 159 158 159 161 162 165 167 168 168 168 169 167 163 153 147 149 153 157 154 153 154 157 156 156 158 163 169 175 180 183 182 187 193 199 205 211 215 219 221 223 222 220 217 212 205 205 210 215 220 224 226 227 230 233 236 238 241 243 245
132 137 143 151 160 169 174 173 167 162 158 156 157 160 163 167 170 171 171 170 169 163 152 142 144 149 153 154 153 154 157 158 157 160 164 168 173 178 182 186 188 193 200 205 211 215 220 223 226 229 230 229 227 223 215 212 216 220 225 230 232 232 234 236 237 239 241 242 245
131 138 144 152 164 172 177 172 167 161 157 156 158 161 165 170 172 173 171 165 159 152 147 144 148 150 152 151 155 157 159 160 162 166 169 171 174 178 185 190 193 200 207 213 219 223 227 231 233 235 237 237 238 235 228 223 224 228 232 235 237 238 239 242 244 245 246 246 248
125 136 144 154 165 173 176 171 165 161 159 157 159 163 167 170 172 170 166 159 152 151 152 154 155 155 156 157 159 161 164 165 167 169 170 171 174 179 186 195 200 208 214 220 227 232 236 239 241 243 244 245 247 245 239 236 235 236 237 238 239 240 242 244 247 250 251 252 252
91 122 137 150 161 167 168 163 160 157 158 159 162 164 166 166 167 168 166 159 153 153 155 158 159 160 160 159 160 163 166 169 168 169 170 172 175 181 191 201 209 216 221 227 233 238 241 244 247 249 250 251 252 250 246 243 244 245 245 245 245 244 244 245 248 250 253 255 256
42 85 117 138 147 151 153 152 151 153 156 161 165 164 162 160 164 167 167 159 151 149 151 155 157 157 156 153 155 159 163 165 168 170 172 174 178 188 199 209 217 223 227 232 237 242 245 248 250 252 254 255 254 252 248 248 250 251 252 253 254 253 252 252 253 254 256 257 258
26 53 97 124 132 138 143 144 144 149 155 162 160 157 154 154 159 162 159 149 142 142 145 148 149 149 149 146 150 155 160 163 167 173 177 178 183 193 205 215 222 228 231 236 242 246 249 252 254 256 257 258 256 253 251 251 254 255 257 258 260 260 260 261 261 262 262 261 261
0 23 86 115 126 134 139 138 138 144 151 155 148 143 143 143 149 149 143 133 131 135 140 138 142 146 149 147 149 152 156 159 164 172 180 185 189 197 209 221 228 232 235 239 244 249 252 255 258 259 260 261 257 255 254 255 257 259 260 262 263 263 264 266 267 267 266 266 265
334 0 63 97 119 126 128 125 129 135 140 138 129 127 128 132 136 136 131 123 124 128 130 126 132 138 141 137 137 140 146 153 162 174 185 193 197 204 214 226 234 237 239 241 246 251 254 257 260 262 262 262 257 255 256 258 260 262 263 264 266 266 267 269 270 270 269 267 270
331 16 54 76 98 109 112 113 117 121 122 116 110 110 114 118 122 120 116 111 113 116 116 115 121 126 127 126 128 137 154 171 180 188 197 206 210 215 221 230 239 243 244 245 248 252 256 259 262 264 265 264 259 257 258 261 263 265 267 269 272 273 273 273 274 275 275 273 277
30 43 49 57 74 91 98 101 103 105 106 105 106 109 113 111 104 97 92 87 91 98 104 110 117 123 128 132 140 156 180 199 202 205 209 214 220 225 229 235 243 247 250 250 252 255 258 261 264 266 267 266 261 258 260 262 266 268 270 271 274 277 279 278 277 279 280 281 284
51 51 50 48 63 79 89 93 94 94 96 101 111 112 106 94 87 81 76 73 78 87 98 109 120 130 140 150 160 175 193 210 214 215 216 220 227 232 235 239 246 250 252 253 255 258 261 263 266 267 268 268 262 258 258 260 265 268 270 272 274 277 281 283 282 282 283 285 287